Heubes-Wetterstation in 44289 Dortmund
Heubes-Wetterstation

Messwerte der letzten 60 Minuten im Minuten-Intervall (Wetterstation 44289 Dortmund)

Datum & Uhrzeit Temp. Feucht. Wind-Ø Böen Sekt.  Regen Rate Luftdruck
23.03.2019 - 13:3611.4 °C71.5%0 km/h 10 km/h NW0.0 mm 0.0 mm 1030.0 hPa, gleichbleibend
23.03.2019 - 13:3511.4 °C71%0 km/h 1 km/h N-NW0.0 mm 0.0 mm 1029.9 hPa, gleichbleibend
23.03.2019 - 13:3411.3 °C71%0 km/h 3 km/h W-NW0.0 mm 0.0 mm 1030.0 hPa, gleichbleibend
23.03.2019 - 13:3311.3 °C72%0 km/h 1 km/h W-NW0.0 mm 0.0 mm 1030.0 hPa, gleichbleibend
23.03.2019 - 13:3211.3 °C72%0 km/h 0 km/h S0.0 mm 0.0 mm 1030.0 hPa, gleichbleibend
23.03.2019 - 13:3111.3 °C72%0 km/h 0 km/h S0.0 mm 0.0 mm 1029.9 hPa, gleichbleibend
23.03.2019 - 13:3011.3 °C72%0 km/h 3 km/h S-SW0.0 mm 0.0 mm 1029.9 hPa, gleichbleibend
23.03.2019 - 13:2911.3 °C72%0 km/h 0 km/h S-SW0.0 mm 0.0 mm 1029.9 hPa, gleichbleibend
23.03.2019 - 13:2811.3 °C72.5%0 km/h 0 km/h W-NW0.0 mm 0.0 mm 1029.9 hPa, gleichbleibend
23.03.2019 - 13:2711.2 °C72.5%0 km/h 0 km/h W-NW0.0 mm 0.0 mm 1029.9 hPa, gleichbleibend
23.03.2019 - 13:2611.2 °C73%0 km/h 0 km/h W-NW0.0 mm 0.0 mm 1029.9 hPa, gleichbleibend
23.03.2019 - 13:2511.2 °C73%0 km/h 0 km/h W-NW0.0 mm 0.0 mm 1030.0 hPa, gleichbleibend
23.03.2019 - 13:2411.1 °C73%1 km/h 0 km/h W-NW0.0 mm 0.0 mm 1030.0 hPa, gleichbleibend
23.03.2019 - 13:2311.1 °C73%1 km/h 0 km/h W-NW0.0 mm 0.0 mm 1030.0 hPa, gleichbleibend
23.03.2019 - 13:2211.1 °C74%1 km/h 0 km/h W-NW0.0 mm 0.0 mm 1030.0 hPa, gleichbleibend
23.03.2019 - 13:2111.1 °C74%1 km/h 0 km/h W-NW0.0 mm 0.0 mm 1030.0 hPa, gleichbleibend
23.03.2019 - 13:2010.9 °C74%1 km/h 0 km/h SW0.0 mm 0.0 mm 1030.0 hPa, gleichbleibend
23.03.2019 - 13:1910.9 °C74.5%1 km/h 1 km/h SW0.0 mm 0.0 mm 1030.0 hPa, gleichbleibend
23.03.2019 - 13:1810.8 °C75%1 km/h 5 km/h S-SW0.0 mm 0.0 mm 1030.0 hPa, gleichbleibend
23.03.2019 - 13:1710.8 °C75%1 km/h 1 km/h S-SW0.0 mm 0.0 mm 1030.0 hPa, gleichbleibend
23.03.2019 - 13:1610.8 °C75%1 km/h 3 km/h SW0.0 mm 0.0 mm 1030.0 hPa, gleichbleibend
23.03.2019 - 13:1510.7 °C74.5%1 km/h 7 km/h SW0.0 mm 0.0 mm 1030.0 hPa, gleichbleibend
23.03.2019 - 13:1410.7 °C74%1 km/h 8 km/h SW0.0 mm 0.0 mm 1030.0 hPa, gleichbleibend
23.03.2019 - 13:1310.7 °C74%1 km/h 3 km/h W0.0 mm 0.0 mm 1030.1 hPa, gleichbleibend
23.03.2019 - 13:1210.7 °C74%1 km/h 5 km/h W-NW0.0 mm 0.0 mm 1030.0 hPa, gleichbleibend
23.03.2019 - 13:1110.7 °C74%1 km/h 1 km/h W-SW0.0 mm 0.0 mm 1030.0 hPa, gleichbleibend
23.03.2019 - 13:1010.7 °C74%1 km/h 1 km/h SW0.0 mm 0.0 mm 1030.1 hPa, gleichbleibend
23.03.2019 - 13:0910.7 °C74%1 km/h 1 km/h S-SW0.0 mm 0.0 mm 1030.1 hPa, gleichbleibend
23.03.2019 - 13:0810.7 °C74%1 km/h 1 km/h W0.0 mm 0.0 mm 1030.1 hPa, gleichbleibend
23.03.2019 - 13:0710.7 °C74%1 km/h 7 km/h W0.0 mm 0.0 mm 1030.1 hPa, gleichbleibend
23.03.2019 - 13:0610.7 °C74%0 km/h 11 km/h W-SW0.0 mm 0.0 mm 1030.1 hPa, gleichbleibend
23.03.2019 - 13:0510.6 °C74%0 km/h 3 km/h W0.0 mm 0.0 mm 1030.1 hPa, gleichbleibend
23.03.2019 - 13:0410.6 °C74.5%0 km/h 3 km/h SW0.0 mm 0.0 mm 1030.1 hPa, gleichbleibend
23.03.2019 - 13:0310.6 °C75%0 km/h 5 km/h W0.0 mm 0.0 mm 1030.1 hPa, gleichbleibend
23.03.2019 - 13:0210.6 °C75%1 km/h 0 km/h S-SW0.0 mm 0.0 mm 1030.1 hPa, gleichbleibend
23.03.2019 - 13:0110.6 °C75%1 km/h 0 km/h S-SW0.0 mm 0.0 mm 1030.1 hPa, gleichbleibend
23.03.2019 - 13:0010.5 °C75%1 km/h 1 km/h S-SW0.0 mm 0.0 mm 1030.1 hPa, gleichbleibend
23.03.2019 - 12:5910.4 °C75%1 km/h 3 km/h S-SW0.0 mm 0.0 mm 1030.1 hPa, gleichbleibend
23.03.2019 - 12:5810.4 °C75%1 km/h 0 km/h W0.0 mm 0.0 mm 1030.1 hPa, gleichbleibend
23.03.2019 - 12:5710.4 °C75%1 km/h 5 km/h W0.0 mm 0.0 mm 1030.1 hPa, gleichbleibend
23.03.2019 - 12:5610.4 °C75%1 km/h 5 km/h W0.0 mm 0.0 mm 1030.1 hPa, gleichbleibend
23.03.2019 - 12:5510.3 °C75%1 km/h 1 km/h W0.0 mm 0.0 mm 1030.0 hPa, gleichbleibend
23.03.2019 - 12:5410.3 °C75%1 km/h 3 km/h W0.0 mm 0.0 mm 1030.0 hPa, gleichbleibend
23.03.2019 - 12:5310.3 °C75%1 km/h 7 km/h W-NW0.0 mm 0.0 mm 1030.0 hPa, gleichbleibend
23.03.2019 - 12:5210.3 °C75%1 km/h 5 km/h SW0.0 mm 0.0 mm 1030.0 hPa, gleichbleibend
23.03.2019 - 12:5110.3 °C75%1 km/h 3 km/h W-SW0.0 mm 0.0 mm 1030.0 hPa, gleichbleibend
23.03.2019 - 12:5010.2 °C75%1 km/h 10 km/h W0.0 mm 0.0 mm 1030.1 hPa, gleichbleibend
23.03.2019 - 12:4910.2 °C75%1 km/h 5 km/h W0.0 mm 0.0 mm 1030.0 hPa, gleichbleibend
23.03.2019 - 12:4810.2 °C75%1 km/h 1 km/h W0.0 mm 0.0 mm 1030.0 hPa, gleichbleibend
23.03.2019 - 12:4710.2 °C76%1 km/h 7 km/h W-NW0.0 mm 0.0 mm 1030.1 hPa, gleichbleibend
23.03.2019 - 12:4610.2 °C76%1 km/h 13 km/h W0.0 mm 0.0 mm 1030.1 hPa, gleichbleibend
23.03.2019 - 12:4510.1 °C76%1 km/h 1 km/h W0.0 mm 0.0 mm 1030.1 hPa, gleichbleibend
23.03.2019 - 12:4410.1 °C76%2 km/h 0 km/h O-SO0.0 mm 0.0 mm 1030.1 hPa, gleichbleibend
23.03.2019 - 12:4310.1 °C76%3 km/h 0 km/h O-SO0.0 mm 0.0 mm 1030.0 hPa, gleichbleibend
23.03.2019 - 12:4210.0 °C76%3 km/h 0 km/h NO0.0 mm 0.0 mm 1030.0 hPa, gleichbleibend
23.03.2019 - 12:4110.0 °C76%3 km/h 0 km/h NO0.0 mm 0.0 mm 1030.0 hPa, gleichbleibend
23.03.2019 - 12:4010.0 °C76.5%3 km/h 0 km/h NO0.0 mm 0.0 mm 1030.0 hPa, gleichbleibend
23.03.2019 - 12:399.9 °C77%3 km/h 0 km/h W0.0 mm 0.0 mm 1030.1 hPa, gleichbleibend
23.03.2019 - 12:389.9 °C77%3 km/h 1 km/h W0.0 mm 0.0 mm 1030.0 hPa, gleichbleibend
23.03.2019 - 12:379.9 °C77%1 km/h 13 km/h W0.0 mm 0.0 mm 1030.0 hPa, gleichbleibend